Domov               UVHVVR             MKGP            O straneh              
ZDRAVSTVENO VARSTVO RASTLIN
  MREŽA AGROMET. POSTAJ
 ► PROGNOSTIČNA OBVESTILA
AGROMETEOROLOŠKI PODATKI -
ARSO
OBVLADOVANJE TVEGANJ ZARADI
NEUGODNIH VREMENSKIH RAZMER
  ► NARAVNE NESREČE
  ► SUŠA/MOČA
  ► NAMAKANJE
  ► ŽLED (gozdarstvo)
KARTOGRAFSKI PRIKAZI
SPLETNE POVEZAVE
PROJEKTI IN PUBLIKACIJE

AGROMETEOROLOŠKA MREŽA: VREMENSKE POSTAJE IN FENOLOŠKA OPAZOVANJA

Pregled podatkov za lokacijo Vitomarci, meteorološka postaja 25168

Pregled senzorjev na lokaciji

ID Ime Zadnja
vrednost
Datum
zadnje
spremembe
Tip
senzorja
1921 Padavine (mm) 0 mm 18.1.2018 20:00 Generic 0.2 mm
1922 Omočenost lista (U) 0 U 18.1.2018 20:00 A730WET
1923 Relativna vlaga 2 m (% RH) 45,74 % RH 18.1.2018 20:00 Generic 0 - 100 %
1924 Temperatura 2 m (°C) 5,81 °C 18.1.2018 20:00 Generic -40 - +60 °C

Pregled podatkov zadnjih 24 ur

Zap.
št.
Datum in čas Vitomarci
Omočenost
lista
Padavine Relativna
vlaga
2
m
Temperatura
2
m
0 18.1.2018 20:00 0 0 45,74 5,81
1 18.1.2018 19:30 0 0 44,44 5,89
2 18.1.2018 19:00 0 0 42,42 5,96
3 18.1.2018 18:30 0 0 41,76 6,03
4 18.1.2018 18:00 0 0 40,49 6,18
5 18.1.2018 17:30 0 0 39,66 6,28
6 18.1.2018 17:00 0 0 37,14 6,57
7 18.1.2018 16:30 0 0 33,31 6,94
8 18.1.2018 16:00 0 0 32,67 7,42
9 18.1.2018 15:30 0 0 31,4 7,67
10 18.1.2018 15:00 0 0 36,95 7,06
11 18.1.2018 14:30 0 0 38,58 6,57
12 18.1.2018 14:00 0 0 43,98 5,18
13 18.1.2018 13:30 0 0 47,37 4,91
14 18.1.2018 13:00 0 0 48,6 4,79
15 18.1.2018 12:30 0 0 45,89 4,66
16 18.1.2018 12:00 0 0 50,4 3,88
17 18.1.2018 11:30 0 0 52,04 3,35
18 18.1.2018 11:00 0 0 58 2,61
19 18.1.2018 10:30 0 0 56,29 3,47
20 18.1.2018 10:00 0 0 55,41 3,15
21 18.1.2018 09:30 0 0 53,85 2,03
22 18.1.2018 09:00 0 0 56,73 1,37
23 18.1.2018 08:30 0 0 62,78 0,24
24 18.1.2018 08:00 0 0 70,26 -1,59
25 18.1.2018 07:30 0 0 69,47 1,29
26 18.1.2018 07:00 0 0 56,12 1,59
27 18.1.2018 06:30 0 0 60,73 0,34
28 18.1.2018 06:00 0 0 66,57 -0,17
29 18.1.2018 05:30 0 0 73,92 -0,88
30 18.1.2018 05:00 0 0 73,21 -0,68
31 18.1.2018 04:30 0 0 75,04 -0,81
32 18.1.2018 04:00 0 0 74,6 -0,42
33 18.1.2018 03:30 0 0 74,63 -0,22
34 18.1.2018 03:00 0 0 74,43 0,1
35 18.1.2018 02:30 0 0 71,4 0,39
36 18.1.2018 02:00 0 0 70,01 0,39
37 18.1.2018 01:30 0 0 67,67 -0,32
38 18.1.2018 01:00 0 0 70,94 -0,24
39 18.1.2018 00:30 0 0 66,28 -0,73
40 18.1.2018 00:00 0 0 63,91 -0,54
41 17.1.2018 23:30 0 0 53,41 0,02
42 17.1.2018 23:00 0 0 50,21 0,73
43 17.1.2018 22:30 0 0 44,32 1,12
44 17.1.2018 22:00 0 0 48,55 0,37
45 17.1.2018 21:30 0 0 48,42 0,81
46 17.1.2018 21:00 0 0 48,77 1,17
47 17.1.2018 20:30 0 0 45,89 2,05
© 2011 Ministrstvo za kmetijstvo, gozdarstvo in prehrano. Vse pravice pridržane.